Temperature
8 8 8 8 8 8 7 7 7 8 8 9 10 10 10 11 10 10 10 9 9 8 8 8 7 7 7 7 7 6 6 6 6 6 6 6 5 5 5 5 4 4 4 4
6 8 8 7 7 8 8 8 8 8 8 10 11 11 10 10 10 9 9 9 9 8 8 7 7 7 7 7 7 6 6 6 6 6 5 5 5 5 5 4 4 4 4 3
6 8 7 6 8 8 7 8 8 7 8 10 9 9 9 9 9 9 8 8 8 8 7 7 7 7 7 6 6 6 6 6 5 5 5 5 5 4 4 4 4 4 3 3
5 6 6 9 9 9 9 9 9 9 9 9 9 9 9 9 8 8 8 8 7 7 7 7 7 6 6 6 6 6 6 5 5 5 5 4 4 4 4 4 4 3 3 3
5 5 7 9 8 8 8 8 9 9 9 9 9 8 8 8 8 7 7 7 7 7 7 7 6 6 6 6 6 5 5 5 5 5 4 4 4 4 3 3 3 3 2 2
5 5 6 9 8 8 8 7 8 8 8 8 8 6 7 8 7 7 7 7 6 6 6 6 6 6 5 5 5 5 5 5 4 4 4 4 3 3 3 3 2 2 2 1
4 5 6 8 7 7 7 7 8 8 8 7 7 6 7 7 6 6 6 6 6 6 6 6 5 5 5 5 5 5 4 4 4 4 3 3 3 3 2 2 2 1 1 1
4 4 6 7 7 6 7 8 8 7 7 7 6 6 6 6 5 5 5 5 5 5 5 5 5 4 4 4 4 4 4 4 3 3 3 3 3 2 2 2 1 1 1 0
6 6 8 8 8 8 8 7 7 6 6 6 5 5 5 5 5 5 5 5 5 4 4 4 4 4 4 4 3 3 3 3 3 3 2 2 2 2 2 1 1 1 0 -0
6 7 8 8 8 8 7 7 6 6 5 5 5 5 4 4 4 4 4 4 4 4 4 4 4 4 3 3 3 3 3 3 3 2 2 2 2 1 1 1 1 0 -0 -0
5 6 7 7 7 7 6 6 5 5 5 4 4 4 4 4 3 3 3 3 3 3 3 3 3 3 3 3 2 2 2 2 2 2 2 1 1 1 1 1 0 -0 -1 -1
5 6 6 6 6 6 5 5 4 4 4 4 3 3 3 3 3 3 3 3 3 3 3 3 3 3 3 2 2 2 2 2 1 1 1 1 1 0 0 -0 -0 -1 -1 -2
6 6 6 5 5 5 4 4 4 3 3 3 3 3 3 3 3 3 3 3 2 2 2 2 2 2 2 2 2 1 1 1 1 1 1 0 0 0 0 -0 -1 -1 -1 -2
5 5 5 5 4 4 4 3 3 3 3 3 3 3 2 2 2 2 2 2 2 2 2 2 2 2 2 2 1 1 1 1 0 0 0 -0 -0 -0 -1 -1 -1 -1 -2 -2
4 4 4 4 3 3 3 3 2 2 2 2 2 2 2 2 2 2 2 2 2 2 2 2 2 2 2 1 1 1 1 0 -0 -0 -1 -1 -1 -1 -1 -2 -2 -2 -2 -2
3 3 3 3 2 2 2 2 2 2 2 2 2 2 2 2 2 2 2 2 1 2 2 1 1 1 1 1 1 1 0 -0 -1 -1 -1 -1 -2 -2 -2 -2 -2 -2 -2 -3
2 2 2 2 1 1 1 1 1 1 1 1 1 1 1 2 2 2 2 1 1 1 1 1 1 1 1 1 1 0 -0 -0 -1 -1 -1 -2 -2 -2 -2 -2 -2 -2 -3 -3
2 2 2 1 1 1 1 1 1 1 1 1 1 1 1 1 1 1 1 1 1 1 2 1 1 1 1 0 0 -0 -0 -1 -1 -1 -2 -2 -2 -2 -2 -3 -3 -3 -3 -3
2 1 1 1 1 1 1 1 1 1 1 1 1 1 1 1 1 1 1 1 1 1 1 1 1 1 0 -0 -0 -1 -1 -1 -1 -2 -2 -2 -2 -2 -3 -3 -3 -3 -4 -4
1 1 1 1 1 1 1 1 1 1 1 1 1 1 1 1 1 1 1 1 1 1 1 1 0 0 -0 -0 -1 -1 -1 -1 -2 -2 -2 -2 -2 -3 -3 -3 -3 -3 -4 -4
1 1 1 1 1 1 1 1 1 1 1 1 0 0 0 1 0 0 0 0 1 0 0 0 0 -0 -0 -1 -1 -1 -1 -2 -2 -2 -2 -2 -3 -3 -3 -3 -3 -4 -4 -4
1 1 1 0 0 1 1 1 1 1 1 1 0 0 0 0 0 0 0 0 0 0 0 -0 -0 -1 -1 -1 -1 -1 -2 -2 -2 -3 -3 -3 -3 -3 -3 -3 -3 -4 -4 -4
0 0 0 0 -0 -0 0 0 0 0 0 0 0 0 0 -0 -0 -0 -0 0 -0 -0 -0 -0 -1 -1 -1 -1 -2 -2 -2 -2 -3 -3 -3 -3 -3 -3 -3 -3 -4 -4 -4 -5
-0 -0 -0 -0 -0 -1 -0 0 0 -0 -0 -0 -0 -0 -0 -1 -0 -0 -0 -1 -1 -1 -1 -1 -1 -1 -1 -2 -2 -2 -2 -2 -3 -3 -3 -3 -3 -3 -3 -4 -4 -4 -5 -5
-1 -1 -1 -1 -1 -1 -1 -1 -1 -1 -1 -0 -0 -0 -1 -1 -1 -1 -1 -1 -1 -1 -1 -1 -1 -1 -2 -2 -2 -2 -2 -3 -3 -3 -3 -3 -3 -4 -4 -4 -4 -4 -5 -5
-1 -1 -1 -1 -1 -1 -1 -1 -1 -1 -1 -1 -1 -1 -1 -1 -1 -1 -1 -1 -1 -1 -1 -1 -2 -2 -2 -2 -2 -2 -3 -3 -3 -3 -3 -4 -4 -4 -4 -4 -5 -5 -5 -5
-2 -2 -2 -2 -1 -1 -1 -2 -2 -2 -2 -2 -2 -1 -1 -2 -2 -2 -2 -1 -2 -2 -2 -2 -2 -2 -2 -2 -3 -3 -3 -3 -3 -4 -4 -4 -4 -4 -4 -5 -5 -5 -5 -6
Wind_Speed
8 9 8 9 9 9 10 10 8 8 8 8 6 5 4 4 3 3 3 3 3 4 4 4 4 5 5 5 5 5 6 6 6 5 5 4 4 4 3 3 2 2 1 1
7 8 8 11 12 12 12 12 14 14 13 8 4 3 4 5 4 4 4 4 3 4 4 4 5 5 4 5 5 5 6 7 6 5 5 5 5 4 4 3 3 2 2 1
5 4 6 8 9 11 8 8 8 11 8 5 4 4 5 5 4 4 4 4 4 4 4 4 4 4 5 5 4 5 6 6 6 6 6 6 5 5 5 4 3 3 3 2
5 6 6 4 2 1 5 7 8 8 7 5 5 5 5 4 3 4 4 4 4 4 4 3 3 3 3 4 5 5 6 6 6 6 6 5 5 5 5 4 4 4 3 3
3 5 8 4 3 2 2 4 4 5 4 4 4 6 4 1 2 3 4 5 4 4 3 3 3 3 3 4 4 5 6 6 6 6 6 6 6 6 5 4 4 3 3 3
4 5 5 2 4 3 2 3 3 3 3 4 4 4 3 4 5 6 5 4 4 4 4 4 4 2 3 4 5 6 6 6 5 6 6 7 6 6 4 4 4 4 3 3
7 6 7 1 4 3 1 2 2 2 3 3 3 5 5 7 7 6 6 6 5 5 5 5 3 3 4 5 6 6 5 4 4 5 5 5 5 4 4 4 4 4 4 3
6 7 8 4 5 3 3 1 2 3 3 5 6 7 7 8 8 8 7 6 6 5 5 5 4 4 5 6 5 4 4 4 4 5 4 4 4 4 4 5 5 4 4 4
7 8 2 6 4 3 0 2 3 4 5 6 7 8 9 8 8 8 7 6 5 5 6 5 4 4 6 6 4 3 4 4 4 4 4 4 5 5 4 5 4 4 4 4
5 7 5 4 3 3 3 4 5 6 6 7 9 9 9 9 8 7 7 6 5 5 6 6 5 5 5 4 3 4 4 4 4 4 4 4 4 4 5 5 5 5 5 4
8 8 7 5 4 4 4 4 5 6 7 7 9 10 9 9 8 7 6 6 5 6 7 7 6 5 5 4 4 4 5 4 4 4 5 5 5 5 5 5 6 6 5 4
8 4 4 4 4 4 4 5 6 7 8 8 8 10 9 8 7 7 7 6 6 7 7 7 6 6 5 4 5 5 5 5 4 4 4 4 4 3 5 5 6 7 6 5
7 6 6 8 6 4 5 6 6 7 8 9 8 8 9 8 7 6 7 7 7 8 7 7 6 6 5 4 5 5 6 5 4 4 5 5 5 5 3 3 6 7 7 8
6 6 7 6 6 5 6 7 7 7 8 8 7 7 7 7 7 7 7 7 7 7 7 7 7 7 5 4 5 5 5 6 5 4 5 5 5 5 5 4 4 4 6 9
7 6 6 6 6 6 6 6 7 7 7 7 6 6 6 7 7 8 7 7 6 7 7 7 7 7 4 4 5 5 5 4 4 4 4 4 4 4 4 5 5 4 3 5
4 4 5 6 7 7 6 6 7 7 7 7 7 6 6 6 7 8 7 6 6 8 8 7 8 7 4 4 5 5 5 7 6 4 4 4 4 5 5 5 5 5 5 5
3 4 4 5 6 7 6 6 6 7 7 7 7 7 6 7 7 8 8 7 7 8 8 8 8 6 5 5 6 5 5 5 7 5 5 5 5 5 5 5 5 5 5 6
4 4 4 5 6 7 7 7 6 7 7 8 7 7 7 7 8 9 8 7 7 8 8 7 7 6 5 6 5 5 5 5 5 5 5 5 5 5 6 6 6 6 4 5
3 4 4 5 6 6 6 7 7 7 7 7 7 8 8 9 8 8 7 7 8 9 8 6 7 6 5 6 6 4 5 6 5 5 5 8 7 6 6 6 6 6 5 5
3 3 4 5 6 6 7 8 8 8 8 7 7 8 9 9 8 7 7 8 8 7 7 6 5 5 5 5 6 4 6 6 6 6 6 6 6 6 6 6 6 6 5 5
4 5 6 6 7 8 8 8 8 9 9 7 8 9 10 10 8 7 7 9 8 6 6 7 5 4 4 5 7 5 6 6 6 6 6 6 6 6 6 6 6 6 6 5
5 6 7 7 8 8 8 7 8 9 9 9 9 9 9 10 9 8 8 8 9 8 5 5 5 6 7 7 5 5 6 6 6 6 6 6 6 6 6 6 6 6 5 5
6 7 8 8 8 9 9 9 9 9 9 10 10 10 10 9 7 7 10 6 5 8 6 5 7 9 10 6 5 6 7 7 7 7 7 6 6 6 6 6 6 6 5 5
8 8 9 8 8 9 11 11 10 9 9 10 10 10 9 8 8 8 8 9 9 9 6 8 11 11 10 5 5 6 6 7 6 6 6 6 6 6 6 6 6 5 5 6
9 9 9 9 9 10 11 11 10 9 9 8 9 9 8 7 8 8 6 7 9 9 7 8 11 11 7 5 6 6 6 7 6 6 6 6 6 6 6 5 5 5 5 5
9 9 9 10 9 9 8 7 8 8 7 8 8 7 6 6 7 7 6 7 9 9 7 6 6 7 5 6 6 7 6 6 7 7 6 6 6 6 5 6 6 6 5 5
9 9 8 8 9 9 8 8 9 9 8 8 9 8 7 6 6 6 7 6 6 6 6 6 5 5 5 6 6 6 6 6 6 6 6 6 6 6 6 6 5 5 5 5
Wind_Direction
280 279 274 262 253 235 226 226 237 259 275 291 312 316 311 307 303 294 286 268 235 229 234 228 221 220 214 207 201 197 199 209 218 217 209 206 210 214 215 218 223 226 233 255
281 252 252 259 250 243 240 238 247 267 279 281 295 334 331 325 320 307 298 290 277 257 248 243 235 223 218 216 208 198 205 213 213 210 205 205 209 210 209 211 210 209 219 229
285 303 300 269 241 221 221 220 228 248 259 298 318 332 321 315 304 290 297 300 293 279 261 254 247 229 220 220 207 204 212 215 210 206 207 207 205 204 207 210 209 210 215 212
291 319 264 241 86 129 232 247 236 250 277 306 314 319 304 296 303 314 318 309 296 285 278 269 259 244 225 214 207 208 213 216 211 205 207 204 203 209 210 207 207 208 214 211
270 283 276 246 160 146 234 277 255 249 280 313 339 328 313 25 22 316 309 306 297 289 285 278 270 256 239 224 214 212 217 218 212 206 205 203 207 214 212 205 206 205 204 200
248 259 262 249 122 90 61 269 27 40 354 339 346 316 283 353 346 323 316 308 301 299 291 278 271 263 249 240 226 225 225 221 212 206 205 207 209 209 205 199 203 199 209 206
236 250 266 232 138 125 205 236 36 20 339 317 278 257 291 319 314 306 298 296 291 283 275 268 265 249 248 247 240 234 225 216 209 207 208 207 204 200 193 191 193 198 207 217
204 226 250 162 139 189 240 335 327 314 304 293 285 289 296 296 293 292 288 285 283 277 273 269 259 244 249 251 249 236 219 213 210 208 208 204 199 198 187 186 196 206 210 224
208 222 236 160 193 223 326 300 298 292 287 287 287 286 287 288 287 286 283 281 277 273 275 270 253 237 248 257 248 229 222 220 213 207 205 198 193 192 190 192 200 208 207 218
268 263 269 248 246 269 284 282 287 285 284 284 282 284 287 288 286 284 283 281 276 273 272 271 261 248 246 254 240 225 227 226 213 204 203 197 195 191 195 201 204 206 207 212
259 273 287 272 276 297 303 297 292 287 283 281 283 284 284 286 285 284 285 283 276 267 268 270 266 258 250 239 225 228 231 227 220 211 202 198 200 202 204 207 201 201 205 199
248 252 260 283 312 322 301 291 289 289 288 282 279 282 284 283 281 282 284 285 282 273 269 271 267 262 252 231 218 221 229 226 220 215 207 201 201 209 208 204 209 209 205 202
262 285 286 289 294 294 285 285 285 282 281 285 283 280 282 283 284 284 283 281 277 274 271 272 270 267 257 230 216 217 225 226 221 214 207 204 199 197 207 213 213 216 215 216
268 280 281 280 288 295 290 288 283 280 278 278 280 282 282 283 286 285 283 279 278 277 274 271 269 266 256 226 215 220 224 224 220 216 209 205 202 199 196 200 211 223 222 223
256 251 262 283 288 290 292 292 290 288 289 288 286 283 281 282 285 286 286 286 284 279 274 271 269 269 256 220 217 223 224 223 218 213 209 205 200 199 199 202 208 211 205 217
265 272 276 279 284 290 295 293 287 288 291 291 291 287 284 280 281 283 282 279 278 277 275 273 271 271 251 219 218 224 226 224 217 210 206 202 201 203 204 204 206 208 211 209
255 267 273 282 286 290 288 287 285 287 290 290 288 289 290 288 286 283 281 277 270 269 269 264 264 262 241 220 215 220 220 221 213 212 209 206 206 207 207 206 209 214 215 208
233 247 256 265 273 282 286 287 286 287 285 283 286 285 282 279 279 282 284 286 285 281 272 260 256 252 239 225 217 215 214 217 212 210 209 208 210 208 208 209 211 213 213 215
231 251 262 267 267 272 276 281 282 282 282 281 280 278 276 274 274 279 284 283 281 283 279 262 252 243 237 227 217 215 213 213 214 212 208 215 217 211 209 209 210 208 207 207
241 252 263 271 272 267 270 274 278 280 278 276 276 278 279 278 276 278 279 276 268 264 269 269 259 246 237 228 218 217 216 215 213 212 208 208 210 211 210 209 208 207 208 209
256 262 267 271 275 273 268 269 273 276 277 271 267 270 275 278 276 272 274 281 280 265 261 262 255 245 233 228 223 220 217 216 214 212 211 211 211 210 210 208 208 208 208 208
260 263 267 269 272 276 273 266 263 268 272 270 266 265 270 275 276 271 259 258 270 271 265 256 252 245 236 233 222 218 219 218 216 213 212 211 210 210 209 207 208 208 205 202
261 261 264 266 267 272 276 271 264 263 265 266 266 265 264 265 264 267 277 267 258 264 262 255 254 252 246 236 222 219 220 220 219 217 214 210 209 208 208 206 206 204 201 200
263 264 263 266 268 271 274 274 269 263 259 261 260 257 257 265 270 255 251 265 267 268 262 259 260 257 249 233 223 221 221 222 221 217 214 210 208 206 204 202 202 200 198 196
261 263 265 266 266 266 266 268 271 268 265 265 263 257 248 241 250 263 259 259 263 267 266 265 264 259 246 230 223 222 221 222 219 212 210 209 209 206 202 198 197 196 197 197
260 263 263 259 257 262 264 264 266 269 268 272 273 266 256 248 247 254 258 257 257 261 260 260 256 252 239 230 227 224 221 223 225 219 210 207 206 204 201 199 196 198 196 194
257 259 262 264 262 256 254 255 258 262 260 259 268 268 259 256 254 253 253 254 254 252 251 251 246 240 235 231 229 225 220 214 211 209 206 205 204 204 201 196 196 192 188 187
Height
1513 1510 1510 1510 1509 1508 1510 1510 1511 1502 1497 1493 1491 1490 1489 1489 1488 1488 1488 1488 1487 1487 1486 1486 1485 1484 1484 1483 1483 1482 1481 1481 1480 1480 1479 1479 1478 1478 1477 1476 1475 1475 1474 1473
1514 1506 1506 1506 1503 1502 1502 1502 1500 1498 1495 1490 1488 1488 1487 1487 1486 1486 1486 1485 1484 1484 1483 1482 1481 1480 1480 1479 1478 1478 1477 1476 1476 1475 1475 1475 1474 1474 1473 1472 1472 1471 1470 1470
1515 1504 1505 1503 1492 1494 1495 1492 1494 1495 1491 1487 1487 1486 1486 1485 1484 1484 1483 1482 1481 1480 1479 1478 1477 1476 1475 1474 1474 1473 1473 1472 1471 1471 1471 1470 1470 1469 1469 1468 1468 1467 1467 1466
1517 1512 1511 1491 1485 1485 1487 1487 1487 1486 1485 1485 1486 1485 1484 1483 1482 1481 1481 1479 1478 1477 1475 1474 1473 1472 1471 1470 1469 1468 1468 1467 1467 1466 1466 1466 1465 1465 1465 1464 1464 1463 1463 1462
1517 1513 1501 1487 1485 1486 1487 1486 1483 1483 1483 1484 1483 1483 1482 1481 1480 1479 1478 1476 1475 1473 1472 1470 1469 1468 1466 1465 1464 1463 1463 1462 1462 1462 1461 1461 1460 1460 1460 1460 1459 1459 1459 1458
1515 1512 1502 1487 1485 1485 1488 1488 1483 1482 1483 1483 1483 1485 1482 1479 1478 1477 1475 1473 1471 1469 1467 1466 1464 1463 1462 1460 1459 1458 1458 1457 1457 1457 1456 1456 1456 1456 1455 1455 1455 1455 1454 1454
1516 1510 1495 1484 1484 1486 1491 1487 1483 1482 1482 1482 1481 1481 1479 1476 1474 1473 1471 1469 1467 1465 1463 1462 1460 1459 1457 1455 1454 1454 1453 1452 1452 1452 1451 1451 1451 1451 1450 1450 1450 1450 1450 1450
1508 1507 1497 1483 1484 1486 1485 1482 1481 1480 1480 1479 1478 1476 1474 1472 1470 1468 1466 1464 1462 1460 1458 1457 1456 1454 1452 1451 1450 1449 1448 1447 1447 1446 1446 1446 1446 1445 1445 1446 1445 1445 1445 1445
1492 1488 1480 1478 1479 1479 1479 1479 1478 1478 1477 1475 1473 1471 1469 1467 1465 1463 1461 1459 1458 1456 1454 1452 1451 1449 1447 1446 1445 1444 1443 1442 1442 1441 1441 1441 1441 1440 1440 1440 1440 1440 1440 1440
1484 1477 1476 1476 1476 1476 1476 1476 1475 1474 1472 1471 1469 1466 1464 1462 1460 1458 1456 1454 1453 1450 1448 1447 1446 1444 1443 1441 1440 1439 1438 1437 1437 1436 1436 1436 1436 1436 1436 1435 1435 1436 1436 1436
1481 1476 1474 1473 1473 1473 1472 1471 1470 1469 1467 1466 1464 1461 1459 1457 1454 1453 1450 1449 1447 1445 1443 1441 1440 1439 1438 1437 1436 1434 1433 1432 1431 1431 1431 1430 1430 1431 1431 1431 1431 1432 1432 1432
1475 1472 1472 1470 1470 1469 1468 1466 1465 1463 1461 1460 1459 1456 1454 1451 1449 1447 1445 1443 1441 1440 1438 1436 1435 1434 1433 1432 1430 1429 1428 1427 1426 1426 1425 1425 1426 1426 1426 1427 1427 1427 1427 1428
1468 1467 1467 1466 1465 1464 1463 1461 1460 1458 1457 1455 1453 1451 1448 1446 1444 1442 1440 1438 1436 1435 1433 1431 1430 1429 1428 1427 1425 1424 1423 1422 1421 1420 1420 1420 1420 1421 1421 1422 1422 1423 1423 1423
1463 1463 1461 1461 1460 1459 1458 1456 1455 1453 1451 1450 1448 1446 1443 1441 1439 1437 1435 1433 1432 1430 1428 1426 1425 1424 1423 1421 1420 1419 1418 1417 1416 1416 1415 1415 1416 1416 1417 1417 1417 1417 1418 1419
1458 1458 1457 1456 1455 1454 1453 1452 1450 1448 1446 1444 1443 1441 1439 1437 1434 1432 1431 1429 1427 1424 1423 1421 1420 1418 1418 1416 1415 1413 1412 1411 1411 1411 1411 1411 1411 1412 1412 1412 1413 1413 1413 1414
1453 1452 1452 1451 1450 1449 1448 1447 1445 1443 1442 1440 1438 1436 1434 1432 1430 1428 1426 1424 1422 1419 1418 1416 1414 1413 1412 1411 1409 1408 1407 1407 1406 1406 1406 1406 1406 1407 1407 1408 1408 1408 1409 1409
1448 1447 1447 1446 1446 1445 1444 1443 1441 1439 1438 1435 1433 1431 1429 1427 1425 1423 1421 1420 1417 1415 1413 1411 1410 1408 1407 1406 1404 1403 1402 1402 1401 1401 1401 1401 1402 1402 1403 1403 1404 1404 1404 1405
1444 1444 1443 1443 1442 1441 1439 1438 1437 1435 1433 1431 1429 1427 1425 1423 1420 1418 1416 1414 1412 1410 1408 1406 1405 1403 1401 1400 1399 1398 1397 1397 1396 1396 1396 1397 1397 1398 1398 1399 1399 1399 1400 1400
1439 1440 1440 1439 1438 1437 1435 1434 1432 1431 1429 1427 1425 1422 1420 1418 1416 1414 1411 1409 1406 1404 1402 1401 1399 1397 1396 1395 1394 1393 1392 1392 1391 1391 1392 1392 1392 1393 1393 1394 1394 1395 1395 1396
1436 1436 1436 1435 1434 1433 1431 1430 1428 1426 1424 1422 1420 1417 1415 1413 1411 1409 1407 1404 1402 1400 1398 1396 1394 1392 1391 1390 1389 1388 1387 1386 1386 1386 1387 1387 1388 1388 1389 1389 1390 1390 1391 1391
1433 1433 1432 1431 1430 1428 1427 1425 1423 1421 1419 1417 1415 1412 1410 1408 1406 1404 1401 1398 1397 1395 1393 1391 1389 1387 1386 1385 1384 1383 1382 1381 1381 1381 1381 1382 1383 1383 1384 1384 1385 1385 1386 1386
1429 1428 1428 1426 1425 1423 1421 1420 1418 1416 1413 1411 1409 1407 1404 1402 1400 1398 1396 1394 1392 1390 1388 1385 1384 1382 1381 1379 1378 1377 1376 1376 1376 1376 1377 1377 1378 1378 1379 1380 1380 1381 1381 1382
1425 1423 1422 1421 1419 1417 1415 1413 1412 1409 1407 1405 1403 1400 1398 1396 1394 1392 1389 1388 1386 1384 1382 1380 1379 1377 1375 1374 1372 1372 1371 1371 1371 1371 1372 1372 1373 1373 1374 1375 1375 1376 1377 1377
1418 1417 1416 1414 1412 1410 1407 1405 1404 1402 1400 1398 1396 1394 1392 1389 1387 1385 1383 1381 1380 1378 1376 1374 1373 1371 1369 1368 1367 1366 1366 1366 1366 1366 1367 1367 1368 1368 1369 1370 1370 1371 1372 1373
1412 1410 1408 1406 1404 1402 1400 1398 1396 1394 1392 1390 1388 1387 1385 1383 1380 1378 1377 1375 1373 1372 1370 1368 1367 1365 1363 1362 1361 1361 1360 1360 1360 1361 1361 1362 1363 1363 1364 1365 1366 1367 1367 1368
1404 1402 1400 1398 1396 1394 1392 1390 1388 1386 1384 1382 1380 1379 1377 1375 1373 1371 1370 1368 1367 1365 1364 1362 1361 1359 1358 1357 1356 1355 1355 1355 1355 1356 1356 1357 1358 1359 1359 1360 1361 1362 1363 1364
1395 1393 1391 1389 1387 1385 1384 1382 1380 1378 1376 1374 1372 1370 1369 1368 1366 1364 1363 1361 1360 1359 1357 1356 1355 1353 1352 1351 1350 1350 1350 1350 1350 1351 1351 1352 1353 1354 1355 1356 1357 1358 1359 1360